When you browse on this site, cookies collect data to enhance your experience and personalize the content and advertising you see.
Visit our Privacy Policy to learn more. By continuing to use the site, you agree to this use of cookies and data.
  • In Austria
  • List of Countries
  • For 7 days
  • Water Temperature
  • Weather Map
  • News
  • Weather Widgets
  • user-avatar
    Login

    Hourly Weather Zastavne

    Today, 18 August, Sunday

    Time Temperature Precipitation Wind Pressure Humidity
    00:00 +16°C° 0 mm 1 mps 743 mmHg 71%
    01:00 +15°C° 0 mm 1 mps 743 mmHg 73%
    02:00 +15°C° 0 mm 2 mps 743 mmHg 76%
    03:00 +15°C° 0 mm 2 mps 743 mmHg 78%
    04:00 +15°C° 0 mm 1 mps 743 mmHg 80%
    05:00 +14°C° 0 mm 1 mps 743 mmHg 82%
    06:00 +16°C° 0 mm 2 mps 743 mmHg 80%
    07:00 +17°C° 0 mm 2 mps 743 mmHg 78%
    08:00 +18°C° 0 mm 2 mps 743 mmHg 76%
    09:00 +20°C° 0 mm 2 mps 743 mmHg 71%
    10:00 +23°C° 0 mm 2 mps 744 mmHg 66%
    11:00 +24°C° 0 mm 3 mps 744 mmHg 61%
    12:00 +25°C° 0 mm 3 mps 744 mmHg 59%
    13:00 +26°C° 0 mm 3 mps 743 mmHg 57%
    14:00 +27°C° 0 mm 3 mps 743 mmHg 54%
    15:00 +27°C° 0 mm 3 mps 743 mmHg 56%
    16:00 +27°C° 0 mm 2 mps 743 mmHg 57%
    17:00 +27°C° 0 mm 2 mps 743 mmHg 59%
    18:00 +25°C° 0 mm 2 mps 743 mmHg 63%
    19:00 +23°C° 0 mm 2 mps 743 mmHg 68%
    20:00 +21°C° 0 mm 2 mps 743 mmHg 72%
    21:00 +20°C° 0 mm 2 mps 743 mmHg 74%
    22:00 +20°C° 0 mm 2 mps 743 mmHg 76%
    23:00 +19°C° 0 mm 2 mps 743 mmHg 78%

    Tomorrow, 19 August, Monday

    Time Temperature Precipitation Wind Pressure Humidity
    00:00 +19°C° 0 mm 3 mps 743 mmHg 78%
    01:00 +18°C° 0 mm 3 mps 743 mmHg 78%
    02:00 +18°C° 0 mm 3 mps 744 mmHg 78%
    03:00 +18°C° 0 mm 3 mps 744 mmHg 77%
    04:00 +18°C° 0 mm 3 mps 744 mmHg 75%
    05:00 +18°C° 0 mm 3 mps 744 mmHg 73%
    06:00 +19°C° 0 mm 3 mps 744 mmHg 72%
    07:00 +20°C° 0 mm 3 mps 744 mmHg 72%
    08:00 +21°C° 0 mm 4 mps 744 mmHg 71%
    09:00 +24°C° 0 mm 3 mps 745 mmHg 68%
    10:00 +26°C° 0 mm 3 mps 745 mmHg 65%
    11:00 +28°C° 0 mm 3 mps 745 mmHg 61%
    12:00 +29°C° 0 mm 3 mps 745 mmHg 59%
    13:00 +30°C° 0 mm 3 mps 745 mmHg 56%
    14:00 +31°C° 0 mm 3 mps 745 mmHg 54%
    15:00 +31°C° 0 mm 3 mps 745 mmHg 56%
    16:00 +30°C° 0 mm 3 mps 745 mmHg 58%
    17:00 +30°C° 0 mm 3 mps 745 mmHg 61%
    18:00 +28°C° 0 mm 3 mps 745 mmHg 66%
    19:00 +27°C° 0 mm 3 mps 745 mmHg 71%
    20:00 +25°C° 0 mm 3 mps 745 mmHg 76%
    21:00 +24°C° 0.3 mm 3 mps 746 mmHg 79%
    22:00 +22°C° 0.3 mm 3 mps 746 mmHg 82%
    23:00 +21°C° 0.3 mm 2 mps 746 mmHg 85%

    Day after tomorrow, 20 August, Tuesday

    Time Temperature Precipitation Wind Pressure Humidity
    00:00 +20°C° 0 mm 2 mps 746 mmHg 87%
    01:00 +20°C° 0 mm 2 mps 746 mmHg 89%
    02:00 +20°C° 0 mm 1 mps 747 mmHg 91%
    03:00 +20°C° 0.1 mm 1 mps 747 mmHg 92%
    04:00 +20°C° 0.1 mm 1 mps 747 mmHg 93%
    05:00 +20°C° 0.1 mm 1 mps 747 mmHg 94%
    06:00 +21°C° 0 mm 1 mps 748 mmHg 92%
    07:00 +21°C° 0 mm 2 mps 748 mmHg 90%
    08:00 +23°C° 0 mm 2 mps 748 mmHg 88%
    09:00 +24°C° 0 mm 2 mps 748 mmHg 82%
    10:00 +25°C° 0 mm 2 mps 749 mmHg 76%
    11:00 +27°C° 0 mm 2 mps 749 mmHg 71%
    12:00 +27°C° 0 mm 2 mps 749 mmHg 69%
    13:00 +28°C° 0 mm 2 mps 749 mmHg 67%
    14:00 +28°C° 0 mm 2 mps 749 mmHg 64%
    15:00 +28°C° 0.1 mm 2 mps 749 mmHg 65%
    16:00 +28°C° 0.1 mm 2 mps 748 mmHg 65%
    17:00 +28°C° 0.1 mm 2 mps 748 mmHg 66%
    18:00 +26°C° 0.1 mm 2 mps 748 mmHg 72%
    19:00 +25°C° 0.1 mm 2 mps 748 mmHg 77%
    20:00 +22°C° 0.1 mm 3 mps 748 mmHg 83%
    21:00 +22°C° 0 mm 3 mps 748 mmHg 85%
    22:00 +21°C° 0 mm 3 mps 749 mmHg 88%
    23:00 +20°C° 0 mm 3 mps 749 mmHg 91%

    21 August, Wednesday

    Time Temperature Precipitation Wind Pressure Humidity
    00:00 +20°C° 0 mm 3 mps 748 mmHg 92%
    01:00 +20°C° 0 mm 3 mps 748 mmHg 93%
    02:00 +20°C° 0 mm 3 mps 748 mmHg 94%
    03:00 +19°C° 0 mm 3 mps 748 mmHg 93%
    04:00 +19°C° 0 mm 3 mps 748 mmHg 91%
    05:00 +19°C° 0 mm 3 mps 747 mmHg 90%
    06:00 +20°C° 0 mm 3 mps 747 mmHg 83%
    07:00 +21°C° 0 mm 3 mps 747 mmHg 77%
    08:00 +22°C° 0 mm 4 mps 747 mmHg 70%
    09:00 +25°C° 0 mm 3 mps 747 mmHg 66%
    10:00 +26°C° 0 mm 3 mps 747 mmHg 62%
    11:00 +28°C° 0 mm 3 mps 747 mmHg 57%
    12:00 +29°C° 0 mm 3 mps 747 mmHg 56%
    13:00 +30°C° 0 mm 3 mps 747 mmHg 56%
    14:00 +31°C° 0 mm 3 mps 747 mmHg 55%
    15:00 +30°C° 0.4 mm 4 mps 747 mmHg 61%
    16:00 +29°C° 0.4 mm 4 mps 747 mmHg 68%
    17:00 +28°C° 0.4 mm 5 mps 747 mmHg 74%
    18:00 +26°C° 0.1 mm 5 mps 747 mmHg 79%
    19:00 +23°C° 0.1 mm 5 mps 748 mmHg 84%
    20:00 +20°C° 0.1 mm 5 mps 748 mmHg 89%
    21:00 +19°C° 0.1 mm 5 mps 749 mmHg 90%
    22:00 +17°C° 0.1 mm 5 mps 749 mmHg 91%
    23:00 +16°C° 0.1 mm 5 mps 749 mmHg 93%

    22 August, Thursday

    Time Temperature Precipitation Wind Pressure Humidity
    00:00 +15°C° 0 mm 5 mps 750 mmHg 90%
    01:00 +15°C° 0 mm 5 mps 750 mmHg 88%
    02:00 +15°C° 0 mm 5 mps 750 mmHg 85%
    03:00 +14°C° 0 mm 4 mps 750 mmHg 87%
    04:00 +14°C° 0 mm 4 mps 750 mmHg 88%
    05:00 +13°C° 0 mm 4 mps 750 mmHg 89%
    06:00 +14°C° 0 mm 4 mps 751 mmHg 88%
    07:00 +14°C° 0 mm 4 mps 751 mmHg 86%
    08:00 +14°C° 0 mm 4 mps 751 mmHg 85%
    09:00 +15°C° 0 mm 4 mps 751 mmHg 81%
    10:00 +18°C° 0 mm 4 mps 751 mmHg 76%
    11:00 +19°C° 0 mm 4 mps 752 mmHg 72%
    12:00 +20°C° 0 mm 4 mps 751 mmHg 69%
    13:00 +21°C° 0 mm 4 mps 751 mmHg 66%
    14:00 +22°C° 0 mm 4 mps 751 mmHg 63%
    15:00 +22°C° 0 mm 4 mps 751 mmHg 64%
    16:00 +22°C° 0 mm 4 mps 751 mmHg 64%
    17:00 +22°C° 0 mm 4 mps 751 mmHg 65%
    18:00 +20°C° 0 mm 3 mps 751 mmHg 70%
    19:00 +19°C° 0 mm 3 mps 751 mmHg 76%
    20:00 +17°C° 0 mm 3 mps 751 mmHg 81%
    21:00 +17°C° 0 mm 2 mps 751 mmHg 84%
    22:00 +16°C° 0 mm 2 mps 751 mmHg 86%
    23:00 +15°C° 0 mm 2 mps 751 mmHg 89%

    23 August, Friday

    Time Temperature Precipitation Wind Pressure Humidity
    00:00 +15°C° 0 mm 2 mps 751 mmHg 90%
    01:00 +15°C° 0 mm 2 mps 751 mmHg 92%
    02:00 +14°C° 0 mm 2 mps 751 mmHg 93%
    03:00 +14°C° 0 mm 2 mps 751 mmHg 94%
    04:00 +14°C° 0 mm 2 mps 751 mmHg 95%
    05:00 +14°C° 0 mm 2 mps 751 mmHg 95%
    06:00 +15°C° 0 mm 2 mps 751 mmHg 91%
    07:00 +16°C° 0 mm 2 mps 751 mmHg 87%
    08:00 +17°C° 0 mm 2 mps 751 mmHg 82%
    09:00 +19°C° 0 mm 3 mps 751 mmHg 75%
    10:00 +20°C° 0 mm 3 mps 751 mmHg 68%
    11:00 +22°C° 0 mm 3 mps 751 mmHg 61%
    12:00 +22°C° 0 mm 3 mps 751 mmHg 58%
    13:00 +24°C° 0 mm 3 mps 751 mmHg 55%
    14:00 +25°C° 0 mm 3 mps 751 mmHg 51%
    15:00 +24°C° 0 mm 3 mps 751 mmHg 52%
    16:00 +24°C° 0 mm 3 mps 751 mmHg 54%
    17:00 +24°C° 0 mm 3 mps 751 mmHg 55%
    18:00 +21°C° 0 mm 3 mps 751 mmHg 61%
    19:00 +19°C° 0 mm 3 mps 751 mmHg 67%
    20:00 +17°C° 0 mm 3 mps 751 mmHg 73%
    21:00 +16°C° 0 mm 3 mps 751 mmHg 74%
    22:00 +16°C° 0 mm 3 mps 751 mmHg 76%
    23:00 +15°C° 0 mm 2 mps 752 mmHg 78%
    Show more